FW4702 Weather Reports


Display with metric or nautical units.
time (UTC)temp
F
wind
direction
speed
MPH
gust
MPH
rain 1hr
in
rain 24hr
in
rain mn
in
humidity
%
barometer
mb
20260905232556 87 0 0.0 1.0 0.00 0.00 0.00 80 1011.9
20260905232056 87 0 0.0 1.0 0.00 0.00 0.00 78 1011.7
20260905231620 88 0 0.0 1.0 0.00 0.00 0.00 76 1011.6
20260905231056 88 0 0.0 1.0 0.00 0.00 0.00 71 1011.6
20260905230556 89 0 0.0 1.0 0.00 0.00 0.00 73 1011.6
20260905230114 90 0 0.0 2.0 0.00 0.00 0.00 68 1011.4
20260905225555 91 0 0.0 3.0 0.00 0.00 0.00 62 1011.5
20260905225056 93 0 1.0 3.0 0.00 0.00 0.00 59 1011.5
20260905224611 91 320 0.0 2.0 0.00 0.00 0.00 61 1011.5
20260905224057 92 5 0.0 2.0 0.00 0.00 0.00 60 1011.4
20260905223557 93 5 0.0 2.0 0.00 0.00 0.00 58 1011.5
20260905223123 93 0 0.0 2.0 0.00 0.00 0.00 60 1011.5
20260905222559 94 0 0.0 3.0 0.00 0.00 0.00 54 1011.6
20260905222055 94 0 0.0 3.0 0.00 0.00 0.00 57 1011.6
20260905221603 95 0 0.0 3.0 0.00 0.00 0.00 52 1011.6
20260905221056 95 321 0.0 2.0 0.00 0.00 0.00 53 1011.6
20260905220558 94 0 0.0 2.0 0.00 0.00 0.00 53 1011.7
20260905220104 94 0 0.0 4.0 0.00 0.00 0.00 54 1011.6
20260905215556 95 0 0.0 4.0 0.00 0.00 0.00 53 1011.7
20260905215059 94 352 0.0 2.0 0.00 0.00 0.00 55 1011.7
20260905214613 95 0 0.0 2.0 0.00 0.00 0.00 52 1011.7
20260905214057 94 331 0.0 5.0 0.00 0.00 0.00 54 1011.8
20260905213557 95 346 1.0 5.0 0.00 0.00 0.00 54 1011.8
20260905213103 96 300 1.0 4.0 0.00 0.00 0.00 53 1011.9
20260905212556 95 0 1.0 4.0 0.00 0.00 0.00 53 1011.9
20260905212056 95 0 1.0 4.0 0.00 0.00 0.00 52 1011.8
20260905211607 95 317 1.0 4.0 0.00 0.00 0.00 53 1011.8
20260905211056 95 0 1.0 4.0 0.00 0.00 0.00 53 1011.8
20260905210556 95 0 0.0 4.0 0.00 0.00 0.00 54 1011.7
20260905210116 95 333 1.0 4.0 0.00 0.00 0.00 52 1011.6
20260905205558 95 322 0.0 3.0 0.00 0.00 0.00 52 1011.8
20260905205056 95 302 2.0 3.0 0.00 0.00 0.00 52 1012.0
20260905204604 95 302 0.0 6.0 0.00 0.00 0.00 50 1012.0
20260905204056 96 90 1.0 6.0 0.00 0.00 0.00 51 1012.1
20260905203557 96 40 0.0 2.0 0.00 0.00 0.00 49 1012.2
20260905203058 96 0 0.0 4.0 0.00 0.00 0.00 49 1012.2
20260905202555 96 0 1.0 4.0 0.00 0.00 0.00 49 1012.2
20260905202100 96 37 0.0 3.0 0.00 0.00 0.00 47 1012.3
20260905201605 96 0 1.0 3.0 0.00 0.00 0.00 49 1012.3
20260905201055 96 0 1.0 5.0 0.00 0.00 0.00 50 1012.4
20260905200555 96 306 0.0 5.0 0.00 0.00 0.00 52 1012.6
20260905200130 97 5 1.0 5.0 0.00 0.00 0.00 50 1012.8
20260905195556 96 26 0.0 4.0 0.00 0.00 0.00 52 1012.8
20260905195056 95 0 0.0 6.0 0.00 0.00 0.00 51 1012.8
20260905194602 96 0 0.0 7.0 0.00 0.00 0.00 50 1012.8
20260905194056 97 252 2.0 7.0 0.00 0.00 0.00 48 1012.9
20260905193556 96 212 0.0 4.0 0.00 0.00 0.00 51 1012.8
20260905193103 95 0 1.0 4.0 0.00 0.00 0.00 50 1012.9
20260905192556 96 313 1.0 4.0 0.00 0.00 0.00 51 1013.1
20260905192056 95 0 0.0 6.0 0.00 0.00 0.00 54 1013.2
20260905191605 95 318 2.0 6.0 0.00 0.00 0.00 52 1013.1
20260905191055 96 299 2.0 6.0 0.00 0.00 0.00 52 1013.1
20260905190556 96 5 0.0 4.0 0.00 0.00 0.00 54 1013.3
20260905190101 95 28 1.0 5.0 0.00 0.00 0.00 53 1013.4
20260905185552 95 94 2.0 7.0 0.00 0.00 0.00 54 1013.4
20260905185053 95 0 1.0 7.0 0.00 0.00 0.00 53 1013.7
20260905184609 94 91 0.0 5.0 0.00 0.00 0.00 56 1013.7
20260905184056 94 0 0.0 6.0 0.00 0.00 0.00 55 1013.7
20260905183553 95 0 3.0 6.0 0.00 0.00 0.00 55 1013.7
20260905183103 94 0 0.0 6.0 0.00 0.00 0.00 57 1013.9
20260905182553 95 0 1.0 6.0 0.00 0.00 0.00 54 1013.8
20260905182056 95 352 1.0 9.0 0.00 0.00 0.00 54 1013.8
20260905181604 95 0 2.0 9.0 0.00 0.00 0.00 55 1013.9
20260905181055 94 41 4.0 9.0 0.00 0.00 0.00 55 1014.0
20260905180553 94 0 0.0 4.0 0.00 0.00 0.00 57 1014.2
20260905175557 94 40 2.0 5.0 0.00 0.00 0.00 57 1014.2
20260905175053 94 100 0.0 5.0 0.00 0.00 0.00 58 1014.3
20260905174609 94 64 1.0 6.0 0.00 0.00 0.00 57 1014.2
20260905174052 94 0 1.0 6.0 0.00 0.00 0.00 56 1014.2
20260905173556 94 79 2.0 7.0 0.00 0.00 0.00 57 1014.3
20260905173105 94 48 2.0 7.0 0.00 0.00 0.00 57 1014.4
20260905172552 94 331 1.0 5.0 0.00 0.00 0.00 58 1014.5
20260905172056 93 85 0.0 6.0 0.00 0.00 0.00 59 1014.5
20260905171604 93 0 1.0 6.0 0.00 0.00 0.00 61 1014.6
20260905171055 93 72 1.0 6.0 0.00 0.00 0.00 61 1014.7
20260905170556 93 0 0.0 4.0 0.00 0.00 0.00 64 1014.7
20260905170101 92 0 1.0 5.0 0.00 0.00 0.00 60 1014.7
20260905165553 92 34 2.0 5.0 0.00 0.00 0.00 60 1014.7
20260905165056 92 352 1.0 4.0 0.00 0.00 0.00 61 1014.7
20260905164607 91 14 1.0 4.0 0.00 0.00 0.00 65 1014.8
20260905164053 91 238 0.0 4.0 0.00 0.00 0.00 68 1015.0
20260905163556 92 289 1.0 5.0 0.00 0.00 0.00 63 1015.1
20260905163106 91 352 1.0 5.0 0.00 0.00 0.00 64 1015.1
20260905162558 91 297 0.0 5.0 0.00 0.00 0.00 66 1015.3
20260905162056 91 342 1.0 5.0 0.00 0.00 0.00 64 1015.3
20260905161602 91 0 2.0 5.0 0.00 0.00 0.00 65 1015.3
20260905161056 90 0 1.0 4.0 0.00 0.00 0.00 66 1015.4
20260905160557 91 321 0.0 3.0 0.00 0.00 0.00 66 1015.4
20260905160101 90 32 0.0 3.0 0.00 0.00 0.00 67 1015.4
20260905155552 90 0 0.0 2.0 0.00 0.00 0.00 67 1015.5
20260905155052 89 0 0.0 3.0 0.00 0.00 0.00 70 1015.5
20260905154606 90 0 0.0 3.0 0.00 0.00 0.00 66 1015.6
20260905154056 89 50 0.0 3.0 0.00 0.00 0.00 69 1015.6
20260905153559 89 0 0.0 3.0 0.00 0.00 0.00 69 1015.6
20260905153104 89 5 1.0 2.0 0.00 0.00 0.00 68 1015.6
20260905152559 88 0 0.0 2.0 0.00 0.00 0.00 70 1015.6
20260905152056 88 0 0.0 2.0 0.00 0.00 0.00 72 1015.5
20260905151622 87 0 0.0 2.0 0.00 0.00 0.00 73 1015.7
20260905151056 86 0 0.0 2.0 0.00 0.00 0.00 80 1015.7
20260905150555 85 0 0.0 2.0 0.00 0.00 0.00 81 1015.6
20260905150104 86 0 0.0 1.0 0.00 0.00 0.00 79 1015.6
20260905145559 86 0 0.0 1.0 0.00 0.00 0.00 80 1015.5
20260905145055 85 165 0.0 1.0 0.00 0.00 0.00 81 1015.6
20260905144600 85 0 0.0 2.0 0.00 0.00 0.00 81 1015.5
20260905144058 84 0 0.0 2.0 0.00 0.00 0.00 82 1015.6
20260905143557 85 0 0.0 2.0 0.00 0.00 0.00 80 1015.6
20260905143105 84 58 0.0 2.0 0.00 0.00 0.00 81 1015.7
20260905142558 84 0 0.0 2.0 0.00 0.00 0.00 83 1015.8
20260905142055 83 0 0.0 2.0 0.00 0.00 0.00 84 1015.9
20260905141603 82 0 0.0 1.0 0.00 0.00 0.00 86 1015.9
20260905141057 82 0 0.0 1.0 0.00 0.00 0.00 85 1015.9
20260905140556 82 0 0.0 2.0 0.00 0.00 0.00 85 1016.0
20260905140105 82 0 0.0 2.0 0.00 0.00 0.00 85 1015.9
20260905135557 82 0 0.0 2.0 0.00 0.00 0.00 87 1016.0
20260905135057 81 0 0.0 0.0 0.00 0.00 0.00 88 1016.0
20260905134601 80 0 0.0 0.0 0.00 0.00 0.00 90 1016.1
20260905134059 80 0 0.0 0.0 0.00 0.00 0.00 90 1016.0
20260905133556 79 0 0.0 0.0 0.00 0.00 0.00 90 1016.0
20260905133105 79 0 0.0 0.0 0.00 0.00 0.00 90 1016.1
20260905132556 79 0 0.0 0.0 0.00 0.00 0.00 91 1016.1
20260905132056 78 0 0.0 0.0 0.00 0.00 0.00 91 1016.1
20260905131609 78 0 0.0 0.0 0.00 0.00 0.00 93 1016.2
20260905131055 77 0 0.0 0.0 0.00 0.00 0.00 93 1016.2
20260905130557 77 0 0.0 0.0 0.00 0.00 0.00 95 1016.2
20260905125556 76 0 0.0 0.0 0.00 0.00 0.00 96 1016.1
20260905125059 75 0 0.0 0.0 0.00 0.00 0.00 97 1016.2
20260905124601 75 0 0.0 0.0 0.00 0.00 0.00 97 1016.2
20260905124055 74 0 0.0 0.0 0.00 0.00 0.00 97 1016.2
20260905123556 74 0 0.0 0.0 0.00 0.00 0.00 97 1016.2
20260905123111 74 0 0.0 0.0 0.00 0.00 0.00 97 1016.2
20260905122601 73 0 0.0 0.0 0.00 0.00 0.00 97 1016.1
20260905122055 73 0 0.0 0.0 0.00 0.00 0.00 97 1016.1
20260905121608 73 0 0.0 0.0 0.00 0.00 0.00 97 1016.1
20260905121053 73 0 0.0 0.0 0.00 0.00 0.00 97 1016.0
20260905120559 73 0 0.0 0.0 0.00 0.00 0.00 97 1015.9
20260905120105 72 0 0.0 0.0 0.00 0.00 0.00 97 1015.9
20260905115556 72 0 0.0 0.0 0.00 0.00 0.00 97 1015.8
20260905115055 72 0 0.0 0.0 0.00 0.00 0.00 97 1015.8
20260905114603 72 0 0.0 0.0 0.00 0.00 0.00 97 1015.7
20260905114052 72 0 0.0 0.0 0.00 0.00 0.00 97 1015.5
20260905113556 72 0 0.0 0.0 0.00 0.00 0.00 97 1015.4
20260905113112 72 0 0.0 0.0 0.00 0.00 0.00 97 1015.3
20260905112559 72 0 0.0 0.0 0.00 0.00 0.00 97 1015.3
20260905112055 72 0 0.0 0.0 0.00 0.00 0.00 97 1015.3
20260905111606 72 0 0.0 0.0 0.00 0.00 0.00 97 1015.1
20260905111055 72 0 0.0 0.0 0.00 0.00 0.00 97 1015.1
20260905110601 72 0 0.0 0.0 0.00 0.00 0.00 97 1015.0
20260905110109 72 0 0.0 0.0 0.00 0.00 0.00 96 1014.9
20260905105556 72 0 0.0 0.0 0.00 0.00 0.00 96 1014.9
20260905105057 72 0 0.0 0.0 0.00 0.00 0.00 97 1015.0
20260905104610 72 0 0.0 0.0 0.00 0.00 0.00 96 1014.8
20260905104052 72 0 0.0 0.0 0.00 0.00 0.00 96 1014.9
20260905103556 72 0 0.0 0.0 0.00 0.00 0.00 96 1014.8
20260905103107 72 0 0.0 0.0 0.00 0.00 0.00 96 1014.7
20260905102555 73 0 0.0 0.0 0.00 0.00 0.00 96 1014.7
20260905102055 73 0 0.0 0.0 0.00 0.00 0.00 97 1014.7
20260905101607 73 0 0.0 0.0 0.00 0.00 0.00 96 1014.6
20260905101055 73 0 0.0 0.0 0.00 0.00 0.00 96 1014.6
20260905100556 73 0 0.0 0.0 0.00 0.00 0.00 96 1014.5
20260905100110 73 0 0.0 0.0 0.00 0.00 0.00 96 1014.6
20260905095555 73 0 0.0 0.0 0.00 0.00 0.00 96 1014.6
20260905095056 72 0 0.0 0.0 0.00 0.00 0.00 96 1014.6
20260905094604 73 0 0.0 0.0 0.00 0.00 0.00 96 1014.7
20260905094055 73 0 0.0 0.0 0.00 0.00 0.00 96 1014.7
20260905093555 73 0 0.0 0.0 0.00 0.00 0.00 96 1014.6
20260905093106 73 0 0.0 0.0 0.00 0.00 0.00 96 1014.6
20260905092555 73 0 0.0 0.0 0.00 0.00 0.00 96 1014.6
20260905092055 73 0 0.0 0.0 0.00 0.00 0.00 96 1014.5
20260905091603 73 0 0.0 0.0 0.00 0.00 0.00 96 1014.5
20260905091055 73 0 0.0 0.0 0.00 0.00 0.00 96 1014.4
20260905090556 73 0 0.0 0.0 0.00 0.00 0.00 96 1014.3
20260905090110 73 0 0.0 0.0 0.00 0.00 0.00 96 1014.4
20260905085556 73 0 0.0 0.0 0.00 0.00 0.00 96 1014.4
20260905085056 73 0 0.0 0.0 0.00 0.00 0.00 96 1014.5
20260905084612 73 0 0.0 0.0 0.00 0.00 0.00 96 1014.5
20260905084057 73 0 0.0 0.0 0.00 0.00 0.00 96 1014.5
20260905083556 73 0 0.0 0.0 0.00 0.00 0.00 95 1014.4
20260905083102 73 0 0.0 0.0 0.00 0.00 0.00 96 1014.5
20260905082555 73 0 0.0 0.0 0.00 0.00 0.00 95 1014.4
20260905082055 73 0 0.0 1.0 0.00 0.00 0.00 95 1014.4
20260905081558 73 0 0.0 1.0 0.00 0.00 0.00 95 1014.4
20260905081056 74 0 0.0 1.0 0.00 0.00 0.00 95 1014.5
20260905080558 74 0 0.0 0.0 0.00 0.00 0.00 95 1014.4
20260905080141 73 0 0.0 0.0 0.00 0.00 0.00 95 1014.2
20260905075556 73 0 0.0 0.0 0.00 0.00 0.00 95 1014.2
20260905075055 73 0 0.0 0.0 0.00 0.00 0.00 95 1014.1
20260905074606 74 0 0.0 0.0 0.00 0.00 0.00 95 1014.1
20260905074055 74 0 0.0 0.0 0.00 0.00 0.00 95 1014.0
20260905073555 74 0 0.0 0.0 0.00 0.00 0.00 95 1014.2
20260905073104 74 0 0.0 0.0 0.00 0.00 0.00 95 1014.2
20260905072559 74 0 0.0 0.0 0.00 0.00 0.00 95 1014.2
20260905072055 74 0 0.0 0.0 0.00 0.00 0.00 95 1014.2
20260905071604 74 0 0.0 0.0 0.00 0.00 0.00 95 1014.2
20260905071059 74 0 0.0 0.0 0.00 0.00 0.00 95 1014.2
20260905070558 74 0 0.0 0.0 0.00 0.00 0.00 95 1014.4
20260905070100 74 0 0.0 0.0 0.00 0.00 0.00 95 1014.5
20260905065556 74 0 0.0 0.0 0.00 0.00 0.00 95 1014.5
20260905065055 74 0 0.0 0.0 0.00 0.00 0.00 94 1014.5
20260905064605 74 0 0.0 0.0 0.00 0.00 0.00 95 1014.6
20260905064055 74 0 0.0 0.0 0.00 0.00 0.00 95 1014.7
20260905063556 74 0 0.0 0.0 0.00 0.00 0.00 95 1014.6
20260905063103 74 0 0.0 0.0 0.00 0.00 0.00 94 1014.6
20260905062555 74 0 0.0 0.0 0.00 0.00 0.00 94 1014.7
20260905062056 74 0 0.0 0.0 0.00 0.00 0.00 94 1014.7
20260905061606 74 0 0.0 0.0 0.00 0.00 0.00 94 1014.8
20260905061055 74 0 0.0 0.0 0.00 0.00 0.00 94 1014.8
20260905060556 74 0 0.0 0.0 0.00 0.00 0.00 94 1014.8
20260905060104 74 0 0.0 0.0 0.00 0.00 0.00 94 1014.8
20260905055600 74 0 0.0 0.0 0.00 0.00 0.00 94 1014.9
20260905055058 74 0 0.0 0.0 0.00 0.00 0.00 94 1014.9
20260905054623 74 0 0.0 0.0 0.00 0.00 0.00 94 1014.9
20260905054055 75 0 0.0 0.0 0.00 0.00 0.00 94 1014.9
20260905053556 75 0 0.0 0.0 0.00 0.00 0.00 94 1014.8
20260905053112 75 0 0.0 0.0 0.00 0.00 0.00 94 1014.8
20260905052600 75 0 0.0 0.0 0.00 0.00 0.00 93 1014.8
20260905052058 75 0 0.0 0.0 0.00 0.00 0.00 94 1014.7
20260905051622 75 0 0.0 0.0 0.00 0.00 0.00 94 1014.8
20260905051058 75 0 0.0 0.0 0.00 0.00 0.00 93 1014.7
20260905050558 75 0 0.0 0.0 0.00 0.00 0.00 93 1014.9
20260905050112 75 0 0.0 0.0 0.00 0.00 0.00 92 1014.9
20260905045557 75 0 0.0 0.0 0.00 0.00 0.00 92 1014.9
20260905045058 75 0 0.0 0.0 0.00 0.00 0.00 93 1015.0
20260905044607 75 0 0.0 0.0 0.00 0.00 0.00 93 1014.8
20260905044058 75 0 0.0 0.0 0.00 0.00 0.00 93 1014.7
20260905043558 75 0 0.0 0.0 0.00 0.00 0.00 93 1014.9
20260905043114 75 0 0.0 0.0 0.00 0.00 0.00 92 1015.0
20260905042557 75 0 0.0 0.0 0.00 0.00 0.00 92 1015.0
20260905042058 75 0 0.0 0.0 0.00 0.00 0.00 92 1015.0
20260905041619 75 0 0.0 0.0 0.00 0.00 0.00 92 1014.9
20260905041102 76 0 0.0 0.0 0.00 0.00 0.00 91 1015.0
20260905040558 76 0 0.0 0.0 0.00 0.00 0.00 91 1015.1
20260905040110 76 0 0.0 0.0 0.00 0.00 0.00 91 1015.1
20260905035558 75 0 0.0 0.0 0.00 0.00 0.00 92 1015.1
20260905035058 75 0 0.0 0.0 0.00 0.00 0.00 92 1015.1
20260905034606 76 0 0.0 0.0 0.00 0.00 0.00 92 1015.2
20260905034059 75 0 0.0 0.0 0.00 0.00 0.00 92 1015.2
20260905033558 75 0 0.0 0.0 0.00 0.00 0.00 91 1015.1
20260905033103 76 0 0.0 0.0 0.00 0.00 0.00 91 1015.1
20260905032602 76 0 0.0 0.0 0.00 0.00 0.00 91 1015.3
20260905032058 76 0 0.0 0.0 0.00 0.00 0.00 91 1015.3
20260905031601 76 0 0.0 0.0 0.00 0.00 0.00 91 1015.2
20260905031101 76 0 0.0 0.0 0.00 0.00 0.00 91 1015.4
20260905030558 76 0 0.0 0.0 0.00 0.00 0.00 90 1015.3
20260905030106 76 0 0.0 0.0 0.00 0.00 0.00 90 1015.4
20260905025558 77 0 0.0 0.0 0.00 0.00 0.00 90 1015.4
20260905025058 77 0 0.0 0.0 0.00 0.00 0.00 90 1015.5
20260905024606 77 0 0.0 0.0 0.00 0.00 0.00 91 1015.5
20260905024057 77 0 0.0 0.0 0.00 0.00 0.00 90 1015.5
20260905023557 77 0 0.0 0.0 0.00 0.00 0.00 90 1015.6
20260905023103 77 0 0.0 1.0 0.00 0.00 0.00 89 1015.6
20260905022557 77 0 0.0 1.0 0.00 0.00 0.00 89 1015.6
20260905022057 77 22 0.0 1.0 0.00 0.00 0.00 90 1015.6
20260905021605 77 0 0.0 0.0 0.00 0.00 0.00 90 1015.6
20260905021059 77 0 0.0 0.0 0.00 0.00 0.00 90 1015.6
20260905020559 77 0 0.0 0.0 0.00 0.00 0.00 90 1015.5
20260905020103 78 0 0.0 0.0 0.00 0.00 0.00 89 1015.4
20260905015555 78 0 0.0 1.0 0.00 0.00 0.00 88 1015.6
20260905015055 78 0 0.0 1.0 0.00 0.00 0.00 88 1015.6
20260905014602 78 0 0.0 0.0 0.00 0.00 0.00 87 1015.6
20260905014056 78 0 0.0 0.0 0.00 0.00 0.00 88 1015.6
20260905013555 78 0 0.0 0.0 0.00 0.00 0.00 89 1015.6
20260905013108 78 0 0.0 0.0 0.00 0.00 0.00 88 1015.6
20260905012557 79 0 0.0 0.0 0.00 0.00 0.00 87 1015.5
20260905012056 79 0 0.0 0.0 0.00 0.00 0.00 87 1015.6
20260905011621 79 0 0.0 0.0 0.00 0.00 0.00 88 1015.4
20260905011055 79 0 0.0 0.0 0.00 0.00 0.00 87 1015.4
20260905010555 79 0 0.0 0.0 0.00 0.00 0.00 86 1015.4
20260905010103 79 0 0.0 0.0 0.00 0.00 0.00 87 1015.3
20260905005555 79 0 0.0 0.0 0.00 0.00 0.00 86 1015.4
20260905005056 79 0 0.0 0.0 0.00 0.00 0.00 86 1015.4
20260905004558 79 0 0.0 0.0 0.00 0.00 0.00 86 1015.5
20260905004056 80 0 0.0 0.0 0.00 0.00 0.00 85 1015.5
20260905003556 80 0 0.0 0.0 0.00 0.00 0.00 83 1015.5
20260905003106 80 0 0.0 0.0 0.00 0.00 0.00 84 1015.4
20260905002555 80 0 0.0 0.0 0.00 0.00 0.00 83 1015.5
20260905002057 80 0 0.0 0.0 0.00 0.00 0.00 83 1015.4
20260905001611 81 0 0.0 0.0 0.00 0.00 0.00 81 1015.4
20260905001055 81 0 0.0 1.0 0.00 0.00 0.00 80 1015.4
20260905000555 82 0 0.0 1.0 0.00 0.00 0.00 80 1015.3
20260905000110 82 0 0.0 0.0 0.00 0.00 0.00 77 1015.3
20260904235552 82 0 0.0 1.0 0.00 0.00 0.00 77 1015.3
20260904235056 82 0 0.0 1.0 0.00 0.00 0.00 78 1015.4
20260904234606 82 0 0.0 3.0 0.00 0.00 0.00 77 1015.5
20260904234058 83 0 0.0 3.0 0.00 0.00 0.00 76 1015.5
20260904233559 83 0 0.0 2.0 0.00 0.00 0.00 76 1015.5
20260904233112 83 337 0.0 3.0 0.00 0.00 0.00 75 1015.4